| time (UTC) | temp C | wind direction | speed KPH | gust KPH | rain 1hr cm | rain 24hr cm | rain mn cm | humidity % | barometer mb |
| 20260504035321 | 16 | 196 | 20.9 | 27.4 | 0.00 | 0.00 | 0.00 | 31 | 997.0 |
| 20260504034834 | 16 | 235 | 19.3 | 24.1 | 0.00 | 0.00 | 0.00 | 31 | 997.3 |
| 20260504034328 | 15 | 202 | 16.1 | 22.5 | 0.00 | 0.00 | 0.00 | 33 | 997.3 |
| 20260504033828 | 15 | 209 | 12.9 | 24.1 | 0.00 | 0.00 | 0.00 | 34 | 997.3 |
| 20260504033322 | 15 | 203 | 16.1 | 24.1 | 0.00 | 0.00 | 0.00 | 34 | 997.4 |
| 20260504032835 | 15 | 213 | 16.1 | 24.1 | 0.00 | 0.00 | 0.00 | 34 | 997.4 |
| 20260504032330 | 15 | 210 | 16.1 | 24.1 | 0.00 | 0.00 | 0.00 | 34 | 997.4 |
| 20260504031824 | 15 | 207 | 14.5 | 19.3 | 0.00 | 0.00 | 0.00 | 33 | 997.6 |
| 20260504031320 | 15 | 210 | 11.3 | 17.7 | 0.00 | 0.00 | 0.00 | 33 | 997.6 |
| 20260504030857 | 15 | 194 | 12.9 | 17.7 | 0.00 | 0.00 | 0.00 | 33 | 997.6 |
| 20260504030327 | 15 | 206 | 11.3 | 17.7 | 0.00 | 0.00 | 0.00 | 32 | 997.9 |
| 20260504025821 | 16 | 207 | 12.9 | 17.7 | 0.00 | 0.00 | 0.00 | 32 | 997.9 |
| 20260504025317 | 16 | 215 | 12.9 | 16.1 | 0.00 | 0.00 | 0.00 | 32 | 997.9 |
| 20260504024825 | 16 | 229 | 9.7 | 17.7 | 0.00 | 0.00 | 0.00 | 32 | 998.0 |
| 20260504024341 | 16 | 217 | 12.9 | 17.7 | 0.00 | 0.00 | 0.00 | 32 | 998.0 |
| 20260504023833 | 16 | 216 | 8.0 | 16.1 | 0.00 | 0.00 | 0.00 | 32 | 998.0 |
| 20260504023329 | 16 | 196 | 9.7 | 19.3 | 0.00 | 0.00 | 0.00 | 31 | 998.0 |
| 20260504022822 | 17 | 217 | 12.9 | 19.3 | 0.00 | 0.00 | 0.00 | 29 | 998.0 |
| 20260504022317 | 17 | 214 | 9.7 | 22.5 | 0.00 | 0.00 | 0.00 | 29 | 998.0 |
| 20260504021832 | 18 | 231 | 16.1 | 22.5 | 0.00 | 0.00 | 0.00 | 28 | 998.4 |
| 20260504021325 | 18 | 214 | 16.1 | 22.5 | 0.00 | 0.00 | 0.00 | 28 | 998.4 |
| 20260504020818 | 18 | 251 | 16.1 | 22.5 | 0.00 | 0.00 | 0.00 | 29 | 998.4 |
| 20260504020333 | 18 | 252 | 16.1 | 25.7 | 0.00 | 0.00 | 0.00 | 29 | 998.4 |
| 20260504015849 | 18 | 222 | 17.7 | 25.7 | 0.00 | 0.00 | 0.00 | 29 | 998.4 |
| 20260504015324 | 18 | 238 | 12.9 | 22.5 | 0.00 | 0.00 | 0.00 | 29 | 998.4 |
| 20260504014820 | 19 | 235 | 16.1 | 25.7 | 0.00 | 0.00 | 0.00 | 30 | 998.4 |
| 20260504014353 | 19 | 213 | 17.7 | 25.7 | 0.00 | 0.00 | 0.00 | 32 | 998.4 |
| 20260504013846 | 19 | 236 | 9.7 | 19.3 | 0.00 | 0.00 | 0.00 | 34 | 998.4 |
| 20260504013318 | 19 | 228 | 12.9 | 19.3 | 0.00 | 0.00 | 0.00 | 34 | 998.4 |
| 20260504012833 | 20 | 217 | 0.0 | 0.0 | 0.00 | 0.00 | 0.00 | 33 | 998.4 |
| 20260504012328 | 20 | 214 | 0.0 | 0.0 | 0.00 | 0.00 | 0.00 | 32 | 998.4 |
| 20260504011821 | 20 | 222 | 0.0 | 0.0 | 0.00 | 0.00 | 0.00 | 32 | 998.5 |
| 20260504011316 | 20 | 204 | 0.0 | 0.0 | 0.00 | 0.00 | 0.00 | 31 | 998.5 |
| 20260504010834 | 21 | 204 | 0.0 | 0.0 | 0.00 | 0.00 | 0.00 | 30 | 998.5 |
| 20260504010349 | 21 | 209 | 0.0 | 0.0 | 0.00 | 0.00 | 0.00 | 30 | 998.8 |
| 20260504005844 | 21 | 205 | 0.0 | 0.0 | 0.00 | 0.00 | 0.00 | 29 | 998.8 |
| 20260504005317 | 21 | 218 | 0.0 | 0.0 | 0.00 | 0.00 | 0.00 | 30 | 998.8 |
| 20260504004829 | 21 | 220 | 0.0 | 0.0 | 0.00 | 0.00 | 0.00 | 29 | 999.1 |
| 20260504004324 | 21 | 252 | 0.0 | 0.0 | 0.00 | 0.00 | 0.00 | 29 | 999.1 |
| 20260504003820 | 21 | 229 | 0.0 | 0.0 | 0.00 | 0.00 | 0.00 | 29 | 999.1 |
| 20260504003318 | 21 | 209 | 0.0 | 0.0 | 0.00 | 0.00 | 0.00 | 29 | 999.6 |
| 20260504002836 | 21 | 215 | 0.0 | 0.0 | 0.00 | 0.00 | 0.00 | 29 | 999.6 |
| 20260504002331 | 21 | 217 | 0.0 | 0.0 | 0.00 | 0.00 | 0.00 | 29 | 999.6 |
| 20260504001826 | 21 | 212 | 0.0 | 0.0 | 0.00 | 0.00 | 0.00 | 28 | 999.7 |
| 20260504001321 | 21 | 214 | 0.0 | 0.0 | 0.00 | 0.00 | 0.00 | 27 | 999.7 |
| 20260504000844 | 21 | 215 | 0.0 | 0.0 | 0.00 | 0.00 | 0.00 | 26 | 999.7 |
| 20260504000334 | 22 | 224 | 0.0 | 0.0 | 0.00 | 0.00 | 0.00 | 26 | 999.8 |
| 20260503235829 | 22 | 221 | 0.0 | 0.0 | 0.00 | 0.00 | 0.00 | 25 | 999.8 |
| 20260503235324 | 22 | 215 | 0.0 | 0.0 | 0.00 | 0.00 | 0.00 | 25 | 999.8 |
| 20260503234838 | 22 | 226 | 0.0 | 0.0 | 0.00 | 0.00 | 0.00 | 24 | 1000.2 |
| 20260503234331 | 22 | 245 | 0.0 | 0.0 | 0.00 | 0.00 | 0.00 | 24 | 1000.2 |
| 20260503233846 | 22 | 237 | 0.0 | 0.0 | 0.00 | 0.00 | 0.00 | 24 | 1000.2 |
| 20260503233320 | 22 | 192 | 0.0 | 0.0 | 0.00 | 0.00 | 0.00 | 25 | 1000.4 |
| 20260503232838 | 22 | 210 | 0.0 | 0.0 | 0.00 | 0.00 | 0.00 | 25 | 1000.4 |
| 20260503232353 | 22 | 234 | 0.0 | 0.0 | 0.00 | 0.00 | 0.00 | 25 | 1000.4 |
| 20260503231826 | 22 | 227 | 0.0 | 0.0 | 0.00 | 0.00 | 0.00 | 25 | 1000.4 |
| 20260503231321 | 22 | 216 | 0.0 | 0.0 | 0.00 | 0.00 | 0.00 | 23 | 1000.4 |
| 20260503230836 | 22 | 218 | 0.0 | 0.0 | 0.00 | 0.00 | 0.00 | 24 | 1000.4 |
| 20260503230352 | 22 | 244 | 0.0 | 0.0 | 0.00 | 0.00 | 0.00 | 24 | 1000.9 |
| 20260503225823 | 22 | 253 | 0.0 | 0.0 | 0.00 | 0.00 | 0.00 | 24 | 1000.9 |
| 20260503225359 | 22 | 238 | 0.0 | 0.0 | 0.00 | 0.00 | 0.00 | 23 | 1000.9 |
| 20260503224827 | 22 | 232 | 0.0 | 0.0 | 0.00 | 0.00 | 0.00 | 24 | 1000.9 |
| 20260503224321 | 22 | 238 | 0.0 | 0.0 | 0.00 | 0.00 | 0.00 | 24 | 1000.9 |
| 20260503223836 | 22 | 244 | 0.0 | 0.0 | 0.00 | 0.00 | 0.00 | 24 | 1000.9 |
| 20260503223331 | 22 | 236 | 0.0 | 0.0 | 0.00 | 0.00 | 0.00 | 24 | 1001.3 |
| 20260503222827 | 22 | 241 | 0.0 | 0.0 | 0.00 | 0.00 | 0.00 | 24 | 1001.3 |
| 20260503222323 | 22 | 230 | 0.0 | 0.0 | 0.00 | 0.00 | 0.00 | 24 | 1001.3 |
| 20260503221840 | 23 | 219 | 0.0 | 0.0 | 0.00 | 0.00 | 0.00 | 23 | 1001.5 |
| 20260503221353 | 22 | 259 | 0.0 | 0.0 | 0.00 | 0.00 | 0.00 | 22 | 1001.5 |
| 20260503220827 | 23 | 247 | 0.0 | 0.0 | 0.00 | 0.00 | 0.00 | 22 | 1001.5 |
| 20260503220322 | 23 | 232 | 0.0 | 0.0 | 0.00 | 0.00 | 0.00 | 23 | 1002.0 |
| 20260503215837 | 22 | 236 | 0.0 | 0.0 | 0.00 | 0.00 | 0.00 | 22 | 1002.0 |
| 20260503215334 | 23 | 212 | 0.0 | 0.0 | 0.00 | 0.00 | 0.00 | 23 | 1002.0 |
| 20260503214850 | 22 | 227 | 0.0 | 0.0 | 0.00 | 0.00 | 0.00 | 23 | 1002.1 |
| 20260503214326 | 22 | 214 | 0.0 | 0.0 | 0.00 | 0.00 | 0.00 | 22 | 1002.1 |
| 20260503213821 | 22 | 228 | 0.0 | 0.0 | 0.00 | 0.00 | 0.00 | 21 | 1002.1 |
| 20260503213335 | 22 | 214 | 0.0 | 0.0 | 0.00 | 0.00 | 0.00 | 23 | 1002.4 |
| 20260503212829 | 22 | 227 | 0.0 | 0.0 | 0.00 | 0.00 | 0.00 | 24 | 1002.4 |
| 20260503212324 | 22 | 226 | 0.0 | 0.0 | 0.00 | 0.00 | 0.00 | 23 | 1002.4 |
| 20260503211859 | 23 | 206 | 0.0 | 0.0 | 0.00 | 0.00 | 0.00 | 22 | 1002.8 |
| 20260503211333 | 22 | 236 | 0.0 | 0.0 | 0.00 | 0.00 | 0.00 | 23 | 1002.8 |
| 20260503210847 | 23 | 275 | 0.0 | 0.0 | 0.00 | 0.00 | 0.00 | 22 | 1002.8 |
| 20260503210323 | 22 | 257 | 0.0 | 0.0 | 0.00 | 0.00 | 0.00 | 23 | 1003.1 |
| 20260503205838 | 23 | 240 | 0.0 | 0.0 | 0.00 | 0.00 | 0.00 | 24 | 1003.1 |
| 20260503205334 | 22 | 240 | 0.0 | 0.0 | 0.00 | 0.00 | 0.00 | 23 | 1003.1 |
| 20260503204830 | 22 | 200 | 0.0 | 0.0 | 0.00 | 0.00 | 0.00 | 23 | 1003.4 |
| 20260503204325 | 23 | 223 | 0.0 | 0.0 | 0.00 | 0.00 | 0.00 | 23 | 1003.4 |
| 20260503203834 | 23 | 220 | 0.0 | 0.0 | 0.00 | 0.00 | 0.00 | 22 | 1003.4 |
| 20260503203329 | 23 | 229 | 0.0 | 0.0 | 0.00 | 0.00 | 0.00 | 25 | 1003.9 |
| 20260503202843 | 22 | 202 | 0.0 | 0.0 | 0.00 | 0.00 | 0.00 | 24 | 1003.9 |
| 20260503202335 | 22 | 211 | 0.0 | 0.0 | 0.00 | 0.00 | 0.00 | 26 | 1003.9 |
| 20260503201850 | 22 | 238 | 0.0 | 0.0 | 0.00 | 0.00 | 0.00 | 24 | 1004.2 |
| 20260503201324 | 22 | 259 | 0.0 | 0.0 | 0.00 | 0.00 | 0.00 | 24 | 1004.2 |
| 20260503200819 | 22 | 211 | 0.0 | 0.0 | 0.00 | 0.00 | 0.00 | 25 | 1004.2 |
| 20260503200332 | 22 | 214 | 0.0 | 0.0 | 0.00 | 0.00 | 0.00 | 24 | 1004.7 |
| 20260503195826 | 22 | 252 | 0.0 | 0.0 | 0.00 | 0.00 | 0.00 | 25 | 1004.7 |
| 20260503195341 | 22 | 221 | 0.0 | 0.0 | 0.00 | 0.00 | 0.00 | 25 | 1004.7 |
| 20260503194833 | 22 | 228 | 0.0 | 0.0 | 0.00 | 0.00 | 0.00 | 25 | 1004.8 |
| 20260503194326 | 22 | 259 | 0.0 | 0.0 | 0.00 | 0.00 | 0.00 | 26 | 1004.8 |
| 20260503193821 | 22 | 181 | 0.0 | 0.0 | 0.00 | 0.00 | 0.00 | 27 | 1004.8 |
| 20260503193336 | 22 | 195 | 0.0 | 0.0 | 0.00 | 0.00 | 0.00 | 25 | 1005.3 |
| 20260503192831 | 21 | 187 | 0.0 | 0.0 | 0.00 | 0.00 | 0.00 | 26 | 1005.3 |
| 20260503192325 | 22 | 197 | 0.0 | 0.0 | 0.00 | 0.00 | 0.00 | 26 | 1005.3 |
| 20260503191819 | 21 | 253 | 0.0 | 0.0 | 0.00 | 0.00 | 0.00 | 26 | 1005.8 |
| 20260503191334 | 22 | 218 | 0.0 | 0.0 | 0.00 | 0.00 | 0.00 | 24 | 1005.8 |
| 20260503190827 | 21 | 234 | 0.0 | 0.0 | 0.00 | 0.00 | 0.00 | 24 | 1005.8 |
| 20260503190325 | 21 | 215 | 0.0 | 0.0 | 0.00 | 0.00 | 0.00 | 27 | 1006.1 |
| 20260503185839 | 21 | 259 | 0.0 | 0.0 | 0.00 | 0.00 | 0.00 | 26 | 1006.1 |
| 20260503185335 | 21 | 192 | 0.0 | 0.0 | 0.00 | 0.00 | 0.00 | 26 | 1006.1 |
| 20260503184831 | 21 | 220 | 0.0 | 0.0 | 0.00 | 0.00 | 0.00 | 26 | 1006.5 |
| 20260503184345 | 21 | 202 | 0.0 | 0.0 | 0.00 | 0.00 | 0.00 | 26 | 1006.5 |
| 20260503183837 | 21 | 244 | 0.0 | 0.0 | 0.00 | 0.00 | 0.00 | 27 | 1006.5 |
| 20260503183332 | 20 | 284 | 0.0 | 0.0 | 0.00 | 0.00 | 0.00 | 26 | 1007.1 |
| 20260503182829 | 21 | 223 | 0.0 | 0.0 | 0.00 | 0.00 | 0.00 | 27 | 1007.1 |
| 20260503182339 | 20 | 229 | 0.0 | 0.0 | 0.00 | 0.00 | 0.00 | 28 | 1007.1 |
| 20260503181835 | 20 | 244 | 0.0 | 0.0 | 0.00 | 0.00 | 0.00 | 25 | 1007.6 |
| 20260503181330 | 21 | 189 | 0.0 | 0.0 | 0.00 | 0.00 | 0.00 | 25 | 1007.6 |
| 20260503180846 | 20 | 219 | 0.0 | 0.0 | 0.00 | 0.00 | 0.00 | 27 | 1007.6 |
| 20260503180341 | 21 | 204 | 0.0 | 0.0 | 0.00 | 0.00 | 0.00 | 26 | 1008.1 |
| 20260503175833 | 20 | 225 | 0.0 | 0.0 | 0.00 | 0.00 | 0.00 | 27 | 1008.1 |
| 20260503175328 | 20 | 226 | 0.0 | 0.0 | 0.00 | 0.00 | 0.00 | 26 | 1008.1 |
| 20260503174823 | 20 | 242 | 0.0 | 0.0 | 0.00 | 0.00 | 0.00 | 27 | 1008.3 |
| 20260503174320 | 20 | 234 | 0.0 | 0.0 | 0.00 | 0.00 | 0.00 | 28 | 1008.3 |
| 20260503173815 | 20 | 265 | 0.0 | 0.0 | 0.00 | 0.00 | 0.00 | 27 | 1008.3 |
| 20260503173333 | 20 | 266 | 0.0 | 0.0 | 0.00 | 0.00 | 0.00 | 28 | 1008.8 |
| 20260503172827 | 20 | 237 | 0.0 | 0.0 | 0.00 | 0.00 | 0.00 | 27 | 1008.8 |
| 20260503172344 | 20 | 217 | 0.0 | 30.6 | 0.00 | 0.00 | 0.00 | 28 | 1008.8 |
| 20260503171857 | 20 | 264 | 0.0 | 40.2 | 0.00 | 0.00 | 0.00 | 28 | 1008.9 |
| 20260503171331 | 19 | 242 | 22.5 | 40.2 | 0.00 | 0.00 | 0.00 | 28 | 1008.9 |
| 20260503170825 | 20 | 194 | 17.7 | 40.2 | 0.00 | 0.00 | 0.00 | 29 | 1008.9 |
| 20260503170319 | 19 | 196 | 24.1 | 33.8 | 0.00 | 0.00 | 0.00 | 29 | 1009.4 |
| 20260503150818 | 15 | 181 | 17.7 | 25.7 | 0.00 | 0.00 | 0.00 | 39 | 1011.1 |
| 20260503150331 | 15 | 205 | 17.7 | 25.7 | 0.00 | 0.00 | 0.00 | 39 | 1011.2 |
| 20260503131325 | 6 | 228 | 11.3 | 17.7 | 0.00 | 0.00 | 0.00 | 63 | 1012.4 |
| 20260503130858 | 6 | 219 | 12.9 | 17.7 | 0.00 | 0.00 | 0.00 | 64 | 1012.4 |
| 20260503130331 | 5 | 228 | 14.5 | 17.7 | 0.00 | 0.00 | 0.00 | 65 | 1012.3 |
| 20260503110336 | 1 | 221 | 16.1 | 17.7 | 0.00 | 0.00 | 0.00 | 74 | 1012.3 |
| 20260503090325 | 3 | 244 | 8.0 | 11.3 | 0.00 | 0.00 | 0.00 | 64 | 1012.3 |
| 20260503081323 | 4 | 254 | 8.0 | 11.3 | 0.00 | 0.00 | 0.00 | 63 | 1012.2 |
| 20260503080822 | 4 | 204 | 9.7 | 11.3 | 0.00 | 0.00 | 0.00 | 61 | 1012.2 |
| 20260503080316 | 5 | 252 | 9.7 | 11.3 | 0.00 | 0.00 | 0.00 | 58 | 1012.1 |
| 20260503072821 | 7 | 308 | 11.3 | 16.1 | 0.00 | 0.00 | 0.00 | 52 | 1012.1 |
| 20260503072334 | 7 | 297 | 9.7 | 16.1 | 0.00 | 0.00 | 0.00 | 52 | 1012.1 |
| 20260503071829 | 7 | 318 | 9.7 | 16.1 | 0.00 | 0.00 | 0.00 | 52 | 1012.1 |
| 20260503071344 | 7 | 298 | 9.7 | 14.5 | 0.00 | 0.00 | 0.00 | 52 | 1012.1 |
| 20260503070818 | 8 | 340 | 9.7 | 17.7 | 0.00 | 0.00 | 0.00 | 52 | 1012.1 |
| 20260503070332 | 8 | 312 | 9.7 | 17.7 | 0.00 | 0.00 | 0.00 | 52 | 1012.1 |
| 20260503060343 | 8 | 275 | 16.1 | 25.7 | 0.00 | 0.00 | 0.00 | 57 | 1011.9 |
| 20260503054822 | 8 | 275 | 19.3 | 20.9 | 0.00 | 0.00 | 0.00 | 57 | 1011.8 |
| 20260503054404 | 8 | 284 | 12.9 | 20.9 | 0.00 | 0.00 | 0.00 | 57 | 1011.8 |
| 20260503053832 | 8 | 290 | 12.9 | 20.9 | 0.00 | 0.00 | 0.00 | 57 | 1011.8 |
| 20260503053327 | 8 | 279 | 14.5 | 20.9 | 0.00 | 0.00 | 0.00 | 57 | 1011.6 |
| 20260503052826 | 8 | 286 | 14.5 | 20.9 | 0.00 | 0.00 | 0.00 | 57 | 1011.6 |
| 20260503052323 | 8 | 283 | 12.9 | 20.9 | 0.00 | 0.00 | 0.00 | 57 | 1011.6 |
| 20260503051820 | 8 | 284 | 12.9 | 20.9 | 0.00 | 0.00 | 0.00 | 56 | 1011.6 |
| 20260503051319 | 9 | 282 | 12.9 | 22.5 | 0.00 | 0.00 | 0.00 | 55 | 1011.6 |
| 20260503050835 | 9 | 281 | 14.5 | 24.1 | 0.00 | 0.00 | 0.00 | 55 | 1011.6 |
| 20260503050330 | 10 | 276 | 19.3 | 25.7 | 0.00 | 0.00 | 0.00 | 55 | 1011.6 |
| 20260503045841 | 10 | 267 | 20.9 | 25.7 | 0.00 | 0.00 | 0.00 | 55 | 1011.6 |
| 20260503045331 | 10 | 271 | 17.7 | 24.1 | 0.00 | 0.00 | 0.00 | 55 | 1011.6 |
| 20260503044827 | 10 | 270 | 17.7 | 24.1 | 0.00 | 0.00 | 0.00 | 55 | 1011.5 |
| 20260503044320 | 10 | 268 | 19.3 | 24.1 | 0.00 | 0.00 | 0.00 | 54 | 1011.5 |
| 20260503043820 | 10 | 271 | 17.7 | 22.5 | 0.00 | 0.00 | 0.00 | 54 | 1011.5 |
| 20260503043335 | 10 | 259 | 17.7 | 24.1 | 0.00 | 0.00 | 0.00 | 54 | 1011.5 |
| 20260503042832 | 10 | 279 | 19.3 | 24.1 | 0.00 | 0.00 | 0.00 | 53 | 1011.5 |
| 20260503042328 | 10 | 268 | 19.3 | 22.5 | 0.00 | 0.00 | 0.00 | 52 | 1011.5 |
| 20260503041845 | 10 | 271 | 19.3 | 24.1 | 0.00 | 0.00 | 0.00 | 53 | 1011.4 |
| 20260503041320 | 10 | 297 | 19.3 | 24.1 | 0.00 | 0.00 | 0.00 | 52 | 1011.4 |
| 20260503040817 | 10 | 272 | 20.9 | 22.5 | 0.00 | 0.00 | 0.00 | 51 | 1011.4 |
| 20260503040333 | 10 | 272 | 17.7 | 22.5 | 0.00 | 0.00 | 0.00 | 50 | 1011.3 |
| 20260503035833 | 11 | 274 | 19.3 | 22.5 | 0.00 | 0.00 | 0.00 | 50 | 1011.3 |